Skip to main content

Trancoso, Bandarra

ID 1210666 · 40.7833, -7.3667 map

Latest reading · 2026-05-09 19:00 (Europe/Lisbon)

Temperature
9.1 °C
Humidity
96 %
Pressure
Precipitation
0.4 mm
Radiation
625 W/m²
Wind speed
15.1 km/h
Wind direction
SW · South-west

24-hour history

Time (Europe/Lisbon) Temp Humidity Pressure Rain Wind Dir
2026-05-09 19:00 9.1 °C 96 % 0.4 mm 15.1 km/h SW
2026-05-09 18:00 9.4 °C 91 % 2.3 mm 15.1 km/h SW
2026-05-09 17:00 12.2 °C 89 % 0.0 mm 16.9 km/h SE
2026-05-09 16:00 11.2 °C 90 % 0.1 mm 18.7 km/h SE
2026-05-09 15:00 9.5 °C 95 % 0.3 mm 12.6 km/h E
2026-05-09 14:00 10.1 °C 98 % 1.9 mm 15.5 km/h SE
2026-05-09 13:00 9.8 °C 95 % 0.4 mm 15.5 km/h SE
2026-05-09 12:00 9.4 °C 93 % 0.1 mm 16.2 km/h SE
2026-05-09 11:00 9.2 °C 92 % 0.5 mm 22.7 km/h SE
2026-05-09 10:00 10.2 °C 82 % 0.0 mm 26.6 km/h SE
2026-05-09 09:00 9.8 °C 81 % 0.0 mm 16.6 km/h SE
2026-05-09 08:00 9.1 °C 87 % 0.0 mm 6.8 km/h E
2026-05-09 07:00 9.3 °C 87 % 0.0 mm 17.6 km/h SE
2026-05-09 06:00 9.4 °C 89 % 0.0 mm 11.9 km/h SE
2026-05-09 05:00 9.6 °C 89 % 0.0 mm 24.5 km/h SE
2026-05-09 04:00 9.6 °C 89 % 0.0 mm 29.5 km/h SE
2026-05-09 03:00 10.0 °C 83 % 0.0 mm 13.3 km/h S
2026-05-09 02:00 10.5 °C 73 % 0.0 mm 9.7 km/h SE
2026-05-09 01:00 11.2 °C 68 % 0.0 mm 5.8 km/h SE
2026-05-09 00:00 10.9 °C 70 % 0.0 mm 6.5 km/h E
2026-05-08 23:00 11.2 °C 68 % 0.0 mm 9.0 km/h NE
2026-05-08 22:00 11.3 °C 67 % 0.0 mm 8.6 km/h NE
2026-05-08 21:00 11.7 °C 64 % 0.0 mm 9.0 km/h NE
2026-05-08 20:00 12.1 °C 64 % 0.0 mm 2.5 km/h SE